Twin Falls, ID

1:16 AM MST on January 24, 2018 (GMT -0700)
Joslin Field-Magic Valley Regional

Weather History for KTWF - December, 2013

Change the Weather History Date:

Sunday, December 15, 2013

  Actual Average Record
Temperature  
Mean Temperature 34 °F -  
Max Temperature 42 °F 37 °F 56 °F (2006)
Min Temperature 25 °F 19 °F -4 °F (1985)
Degree Days  
Heating Degree Days 31 37  
Month to date heating degree days 670 538  
Since 1 July heating degree days 2026 1976  
Cooling Degree Days 0 0  
Month to date cooling degree days 0 0  
Year to date cooling degree days 1138 680  
Moisture  
Dew Point 22 °F    
Average Humidity 63    
Maximum Humidity 81    
Minimum Humidity 45    
Precipitation  
Precipitation 0.00 in 0.04 in 0.45 in (1981)
Month to date precipitation 0.06 0.60  
Year to date precipitation 4.52 10.03  
Sea Level Pressure  
Sea Level Pressure 30.44 in    
Wind  
Wind Speed 8 mph (SE)    
Max Wind Speed 16 mph    
Max Gust Speed 19 mph    
Visibility 9 miles    
Events      
T = Trace of Precipitation, MM = Missing Value Source: NWS Daily Summary

Daily Weather History Graph

Daily Weather History Graph

Search for Another Location

Airport or City:

Trip Planner

Search our weather history database for the weather conditions in past years. The results will help you decide how hot, cold, wet, or windy it might be!

Date:

Astronomy

Dec. 15, 2013 Rise Set
Actual Time 8:00 AM MST 5:05 PM MST
Civil Twilight 7:28 AM MST 5:37 PM MST
Nautical Twilight 6:53 AM MST 6:13 PM MST
Astronomical Twilight 6:18 AM MST 6:47 PM MST
Moon 4:14 PM MST (12/15) 6:19 AM MST (12/15)
Length of Visible Light 10h 09m
Length of Day
9h 05m
Waxing Gibbous, 98% of the Moon is Illuminated
Dec 15
Waxing Gibbous
Dec 17
Full
Dec 25
Last Quarter
Jan 1
New
Jan 7
First Quarter

Hourly Weather History & Observations

Time (MST) Temp. Windchill Dew Point Humidity Pressure Visibility Wind Dir Wind Speed Gust Speed Precip Events Conditions
12:53 AM 27.0 °F 18.7 °F 21.9 °F 81% 30.48 in 8.0 mi East 8.1 mph - N/A   Clear
1:53 AM 32.0 °F 25.6 °F 21.9 °F 66% 30.47 in 10.0 mi ESE 6.9 mph - N/A   Clear
2:53 AM 30.0 °F 22.4 °F 21.9 °F 72% 30.48 in 10.0 mi SE 8.1 mph - N/A   Clear
3:53 AM 32.0 °F 23.0 °F 18.0 °F 56% 30.48 in 10.0 mi SSW 11.5 mph - N/A   Clear
4:53 AM 33.1 °F 23.0 °F 18.0 °F 54% 30.46 in 10.0 mi SSW 15.0 mph - N/A   Clear
5:53 AM 32.0 °F 21.6 °F 18.0 °F 56% 30.47 in 10.0 mi SSW 15.0 mph - N/A   Clear
6:53 AM 35.1 °F 25.9 °F 19.0 °F 52% 30.45 in 10.0 mi SSW 13.8 mph - N/A   Clear
7:53 AM 32.0 °F 23.0 °F 18.0 °F 56% 30.45 in 10.0 mi SW 11.5 mph - N/A   Clear
8:53 AM 28.9 °F 22.8 °F 19.0 °F 67% 30.46 in 10.0 mi ESE 5.8 mph - N/A   Clear
9:53 AM 32.0 °F 28.7 °F 19.9 °F 61% 30.48 in 10.0 mi East 3.5 mph - N/A   Clear
10:53 AM 35.1 °F 30.1 °F 21.0 °F 57% 30.48 in 10.0 mi ESE 5.8 mph - N/A   Clear
11:53 AM 37.0 °F 33.3 °F 21.0 °F 52% 30.46 in 10.0 mi East 4.6 mph - N/A   Clear
12:53 PM 39.0 °F 34.8 °F 23.0 °F 53% 30.45 in 10.0 mi ENE 5.8 mph - N/A   Clear
1:53 PM 42.1 °F 39.2 °F 23.0 °F 47% 30.40 in 10.0 mi NNE 4.6 mph - N/A   Clear
2:53 PM 39.9 °F 35.8 °F 24.1 °F 53% 30.40 in 10.0 mi NE 5.8 mph - N/A   Clear
3:53 PM 39.0 °F 34.8 °F 26.1 °F 60% 30.39 in 10.0 mi ENE 5.8 mph - N/A   Mostly Cloudy
4:53 PM 39.0 °F 36.8 °F 25.0 °F 57% 30.40 in 10.0 mi North 3.5 mph - N/A   Mostly Cloudy
5:53 PM 35.1 °F 32.2 °F 26.1 °F 70% 30.42 in 10.0 mi West 3.5 mph - N/A   Scattered Clouds
6:53 PM 33.1 °F 23.4 °F 25.0 °F 72% 30.40 in 9.0 mi SSE 13.8 mph - N/A   Scattered Clouds
7:53 PM 36.0 °F 27.5 °F 24.1 °F 62% 30.38 in 10.0 mi South 12.7 mph - N/A   Partly Cloudy
8:53 PM 32.0 °F 27.5 °F 25.0 °F 75% 30.42 in 7.0 mi NW 4.6 mph - N/A   Overcast
9:53 PM 26.1 °F 18.4 °F 21.0 °F 81% 30.43 in 5.0 mi SE 6.9 mph - N/A   Haze
10:53 PM 27.0 °F 19.5 °F 21.9 °F 81% 30.43 in 6.0 mi South 6.9 mph - N/A   Haze
11:53 PM 36.0 °F 26.7 °F 23.0 °F 59% 30.39 in 10.0 mi South 15.0 mph - N/A   Clear